Angleton, TX

3:02 AM CDT on August 24, 2019 (GMT -0500)
Brazoria County

Weather History for KLBX - July, 2019

Change the Weather History Date:

Tuesday, July 16, 2019

  Actual Average Record
Temperature  
Mean Temperature 86 °F -  
Max Temperature 91 °F 89 °F 97 °F (2000)
Min Temperature 81 °F 72 °F 71 °F (1998)
Cooling Degree Days 21    
Growing Degree Days 36 (Base 50)    
Moisture  
Dew Point 77 °F    
Average Humidity 79    
Maximum Humidity 91    
Minimum Humidity 61    
Precipitation  
Precipitation 0.00 in - - ()
Sea Level Pressure  
Sea Level Pressure 30.01 in    
Wind  
Wind Speed 10 mph (South)    
Max Wind Speed 20 mph    
Max Gust Speed 24 mph    
Visibility 10 miles    
Events      
Averages and records for this station are not official NWS values.
T = Trace of Precipitation, MM = Missing Value Source: NWS Daily Summary

Daily Weather History Graph

Daily Weather History Graph

Search for Another Location

Airport or City:

Astronomy

Jul. 16, 2019 Rise Set
Actual Time 6:33 AM CDT 8:22 PM CDT
Civil Twilight 6:06 AM CDT 8:48 PM CDT
Nautical Twilight 5:34 AM CDT 9:20 PM CDT
Astronomical Twilight 5:01 AM CDT 9:54 PM CDT
Moon 8:28 PM CDT (7/16) 6:14 AM CDT (7/16)
Length of Visible Light 14h 41m
Length of Day
13h 48m
Full, 100% of the Moon is Illuminated
Jul 16
Full
Jul 16
Full
Jul 24
Last Quarter
Jul 31
New
Aug 7
First Quarter

Hourly Weather History & Observations

Time (CDT) Temp. Heat Index Dew Point Humidity Pressure Visibility Wind Dir Wind Speed Gust Speed Precip Events Conditions
12:53 AM 81.0 °F 87.9 °F 77.0 °F 88% 29.97 in 10.0 mi South 9.2 mph - N/A   Clear
1:53 AM 81.0 °F 88.6 °F 78.1 °F 91% 29.96 in 10.0 mi South 9.2 mph - N/A   Clear
2:23 AM 82.0 °F 91.0 °F 78.1 °F 88% 29.96 in 10.0 mi South 9.2 mph - N/A   Mostly Cloudy
2:53 AM 82.0 °F 91.0 °F 78.1 °F 88% 29.96 in 10.0 mi South 9.2 mph - N/A   Overcast
3:53 AM 82.0 °F 91.6 °F 79.0 °F 90% 29.96 in 10.0 mi South 9.2 mph - N/A   Overcast
4:29 AM 82.0 °F 91.6 °F 79.0 °F 90% 29.97 in 10.0 mi South 8.1 mph - N/A   Overcast
4:53 AM 82.0 °F 91.0 °F 78.1 °F 88% 29.97 in 10.0 mi South 9.2 mph - N/A   Overcast
5:53 AM 81.0 °F 88.6 °F 78.1 °F 91% 29.99 in 9.0 mi South 5.8 mph - N/A   Overcast
6:07 AM 81.0 °F 88.6 °F 78.1 °F 91% 29.99 in 9.0 mi South 6.9 mph - N/A   Overcast
6:53 AM 81.0 °F 88.6 °F 78.1 °F 91% 30.00 in 8.0 mi South 6.9 mph - N/A   Mostly Cloudy
7:01 AM 81.0 °F 88.6 °F 78.1 °F 91% 30.00 in 9.0 mi South 8.1 mph - N/A   Scattered Clouds
7:53 AM 84.0 °F 96.0 °F 79.0 °F 85% 30.02 in 10.0 mi South 6.9 mph - N/A   Scattered Clouds
8:53 AM 86.0 °F 99.3 °F 79.0 °F 79% 30.02 in 10.0 mi South 11.5 mph - N/A   Scattered Clouds
9:00 AM 86.0 °F 98.3 °F 78.1 °F 77% 30.02 in 10.0 mi SSE 11.5 mph - N/A   Mostly Cloudy
9:53 AM 88.0 °F 100.2 °F 77.0 °F 70% 30.03 in 10.0 mi SSW 11.5 mph - N/A   Mostly Cloudy
10:02 AM 88.0 °F 100.2 °F 77.0 °F 70% 30.03 in 10.0 mi South 12.7 mph - N/A   Mostly Cloudy
10:14 AM 88.0 °F 100.2 °F 77.0 °F 70% 30.03 in 10.0 mi South 13.8 mph - N/A   Mostly Cloudy
10:53 AM 90.0 °F 102.5 °F 77.0 °F 65% 30.04 in 10.0 mi South 16.1 mph - N/A   Scattered Clouds
11:53 AM 89.1 °F 100.2 °F 75.9 °F 65% 30.05 in 10.0 mi South 10.4 mph - N/A   Partly Cloudy
12:53 PM 90.0 °F 101.3 °F 75.9 °F 63% 30.05 in 10.0 mi South 15.0 mph - N/A   Scattered Clouds
1:53 PM 89.1 °F 101.4 °F 77.0 °F 67% 30.04 in 10.0 mi South 15.0 mph 20.7 mph N/A   Partly Cloudy
2:53 PM 91.0 °F 102.9 °F 75.9 °F 61% 30.03 in 10.0 mi South 16.1 mph - N/A   Scattered Clouds
3:53 PM 88.0 °F 98.5 °F 75.9 °F 67% 30.02 in 10.0 mi SSE 13.8 mph - N/A   Partly Cloudy
4:53 PM 88.0 °F 98.5 °F 75.9 °F 67% 30.01 in 10.0 mi South 19.6 mph 24.2 mph N/A   Mostly Cloudy
5:53 PM 87.1 °F 96.3 °F 75.0 °F 67% 30.00 in 10.0 mi South 13.8 mph 21.9 mph N/A   Scattered Clouds
6:53 PM 87.1 °F 96.3 °F 75.0 °F 67% 30.00 in 10.0 mi SSW 12.7 mph - N/A   Clear
7:53 PM 84.9 °F 94.1 °F 75.9 °F 74% 30.00 in 10.0 mi South 10.4 mph - N/A   Clear
8:53 PM 82.9 °F 90.8 °F 75.9 °F 79% 30.00 in 10.0 mi South 9.2 mph - N/A   Clear
9:53 PM 81.0 °F 87.3 °F 75.9 °F 85% 30.01 in 10.0 mi South 6.9 mph - N/A   Clear
10:53 PM 81.0 °F 87.3 °F 75.9 °F 85% 30.02 in 10.0 mi SSE 5.8 mph - N/A   Clear
11:53 PM 81.0 °F 87.9 °F 77.0 °F 88% 30.03 in 10.0 mi Calm Calm - N/A   Scattered Clouds